Manhattan, KS

10:19 AM CST on December 10, 2019 (GMT -0600)
Manhattan Regional

Weather History for KMHK - November, 2019

Change the Weather History Date:

Tuesday, November 19, 2019

  Actual Average Record
Temperature  
Mean Temperature 50 °F 41 °F  
Max Temperature 69 °F 53 °F 78 °F (2007)
Min Temperature 30 °F 29 °F 15 °F (2014)
Degree Days  
Heating Degree Days 16 24  
Month to date heating degree days 459 380  
Since 1 July heating degree days 892 779  
Cooling Degree Days 0 0  
Month to date cooling degree days 0 0  
Year to date cooling degree days 1610 1361  
Moisture  
Dew Point 32 °F    
Average Humidity 56    
Maximum Humidity 82    
Minimum Humidity 24    
Precipitation  
Precipitation 0.00 in 0.05 in 0.05 in (2005)
Month to date precipitation T 1.17  
Year to date precipitation 40.84 31.10  
Sea Level Pressure  
Sea Level Pressure 29.90 in    
Wind  
Wind Speed 3 mph ()    
Max Wind Speed 13 mph    
Max Gust Speed 16 mph    
Visibility 10.0 miles    
Events      
T = Trace of Precipitation, MM = Missing Value Source: Averaged Metar Reports

Daily Weather History Graph

Daily Weather History Graph

Search for Another Location

Airport or City:

Astronomy

Nov. 19, 2019 Rise Set
Actual Time 7:14 AM CST 5:09 PM CST
Civil Twilight 6:45 AM CST 5:38 PM CST
Nautical Twilight 6:12 AM CST 6:10 PM CST
Astronomical Twilight 5:40 AM CST 6:42 PM CST
Moon No Moon Rise 1:25 PM CST (11/19)
Length of Visible Light 10h 53m
Length of Day
9h 55m
Waning Gibbous, 51% of the Moon is Illuminated
Nov 19
Waning Gibbous
Nov 19
Last Quarter
Nov 26
New
Dec 4
First Quarter
Dec 11
Full

Hourly Weather History & Observations

Time (CST) Temp. Windchill Dew Point Humidity Pressure Visibility Wind Dir Wind Speed Gust Speed Precip Events Conditions
12:52 AM 42.1 °F - 30.0 °F 62% 29.88 in 10.0 mi Calm Calm - N/A   Clear
1:52 AM 36.0 °F 32.1 °F 28.0 °F 73% 29.87 in 10.0 mi South 4.6 mph - N/A   Clear
2:52 AM 37.0 °F 34.5 °F 28.9 °F 73% 29.88 in 10.0 mi SSW 3.5 mph - N/A   Clear
3:52 AM 37.9 °F - 30.0 °F 73% 29.89 in 10.0 mi Calm Calm - N/A   Clear
4:52 AM 35.1 °F 28.6 °F 30.0 °F 82% 29.90 in 10.0 mi WSW 8.1 mph - N/A   Clear
5:52 AM 35.1 °F 32.2 °F 30.0 °F 82% 29.91 in 10.0 mi WSW 3.5 mph - N/A   Clear
7:52 AM 34.0 °F - 28.9 °F 82% 29.96 in 10.0 mi Calm Calm - N/A   Clear
8:52 AM 41.0 °F 39.0 °F 33.1 °F 73% 29.99 in 10.0 mi SSW 3.5 mph - N/A   Clear
10:52 AM 54.0 °F - 37.0 °F 53% 29.97 in 10.0 mi South 3.5 mph - N/A   Clear
11:52 AM 59.0 °F - 36.0 °F 42% 29.94 in 10.0 mi SSW 4.6 mph - N/A   Clear
12:52 PM 62.1 °F - 34.0 °F 35% 29.91 in 10.0 mi Calm Calm - N/A   Mostly Cloudy
2:52 PM 68.0 °F - 30.9 °F 25% 29.87 in 10.0 mi South 8.1 mph - N/A   Clear
3:52 PM 66.9 °F - 32.0 °F 27% 29.87 in 10.0 mi SSE 9.2 mph - N/A   Clear
5:52 PM 57.0 °F - 32.0 °F 39% 29.88 in 10.0 mi ESE 4.6 mph - N/A   Clear
6:52 PM 53.1 °F - 32.0 °F 45% 29.90 in 10.0 mi SSE 3.5 mph - N/A   Clear
7:52 PM 52.0 °F - 33.1 °F 49% 29.89 in 10.0 mi South 5.8 mph - N/A   Clear
8:52 PM 50.0 °F - 33.1 °F 52% 29.89 in 10.0 mi NE 3.5 mph - N/A   Clear
9:52 PM 52.0 °F - 33.1 °F 49% 29.89 in 10.0 mi NNE 4.6 mph - N/A   Clear
10:52 PM 53.1 °F - 34.0 °F 48% 29.87 in 10.0 mi Variable 4.6 mph - N/A   Clear
11:52 PM 54.0 °F - 34.0 °F 47% 29.87 in 10.0 mi Variable 4.6 mph - N/A   Clear